{"data":{"norad_id":59957,"intl_designator":"2024-107N","name":"STARLINK-11142 [DTC]","alt_names":[],"object_type":"PAYLOAD","status":"ACTIVE","operator":null,"country":"US","launch_date":"2024-06-05","launch_site_code":"AFETR","launch_vehicle":null,"mission":null,"orbit_class":"UNKNOWN","rcs_meters":null,"size_class":null,"mass_kg":null,"dimensions":null,"purposes":["comms"],"wikipedia_slug":null,"has_3d_model":false,"image_url":null,"decayed_at":null,"tle_current":{"epoch":"2026-05-24T17:35:14.998272Z","epoch_age_seconds":94319,"freshness":"FRESH","line1":"1 59957U 24107N   26144.73281248  .00000340  00000+0  76744-5 0  9990","line2":"2 59957  53.1585 236.0834 0001523  90.7197 269.3995 15.69706963114106","mean_motion":15.69706963,"eccentricity":0.0001523,"inclination_deg":53.1585,"raan_deg":236.0834,"arg_perigee_deg":90.7197,"mean_anomaly_deg":269.3995,"bstar":7.6744e-6,"rev_number":11410,"period_min":91.736867704778,"perigee_km":358.7092631925,"apogee_km":360.76161913808,"semimajor_km":6737.8724411653,"source":"CELESTRAK","updated_at":"2026-05-25T13:38:19.129014Z"}}}